Date String (YYYY-MM-DD hh:mm:ss) UTC,Instrument flags,absolute air pressure of the measurement (hPa),sample flow rate (lpm),inlet stack bypass flow (lpm),air temperature of the measurement (°C),ambient temperature measured by the external sensor (°C),aerosol sample conditioner tube jacket temperature (°C),OPC LED temperature (°C),internal box temperature (°C),relative humidity of the measurement (%),span deviation,mass concentration of particles derived from Lorenz-Mie calculation of OPC scattering (μg/m³),mass concentration of particles derived from Lorenz-Mie calculation of OPC scattering (μg/m³),mass concentration of particles derived from Lorenz-Mie calculation of OPC scattering (μg/m³)
DateTimeUTC,F1_M11,P_M11,Q1_M11,Q2_M11,T1_M11,T2_M11,T3_M11,T4_M11,T5_M11,U1_M11,ZSPAN_M11,X0_M11,X2_M11,X1_M11
2023-09-21 00:00:00,SystemResetWarning,0827.1,5.00,000.00,027.7,026.6,000.0,036.0,029.4,18.1,0000.0,0009.59,0003.05,0002.40
2023-09-21 00:01:00,SystemResetWarning,0827.1,5.01,000.00,027.8,026.8,000.0,036.0,029.5,18.2,0000.0,0009.73,0003.09,0002.41
2023-09-21 00:02:00,SystemResetWarning,0827.1,5.01,000.00,027.8,026.9,000.0,036.0,029.6,18.3,0000.0,0010.19,0003.10,0002.41
2023-09-21 00:03:00,SystemResetWarning,0827.0,5.00,000.00,027.9,026.8,000.0,036.1,029.6,18.2,0000.0,0010.38,0003.13,0002.43
2023-09-21 00:04:00,SystemResetWarning,0827.1,4.98,000.00,027.8,025.2,000.0,036.0,029.2,18.4,0000.0,0010.10,0003.14,0002.44
2023-09-21 00:05:00,SystemResetWarning,0827.0,5.01,000.00,027.7,024.0,000.0,036.0,028.8,18.5,0000.0,0009.00,0003.15,0002.45
2023-09-21 00:06:00,SystemResetWarning,0827.0,5.02,000.00,027.6,024.0,000.0,035.9,028.8,18.5,0000.0,0009.46,0003.17,0002.46
2023-09-21 00:07:00,SystemResetWarning,0827.0,5.00,000.00,027.5,024.2,000.0,035.9,028.9,18.5,0000.0,0009.82,0003.19,0002.46
2023-09-21 00:08:00,SystemResetWarning,0827.0,5.00,000.00,027.5,024.6,000.0,035.9,028.9,18.4,0000.0,0009.85,0003.19,0002.46
2023-09-21 00:09:00,SystemResetWarning,0827.0,5.00,000.00,027.5,025.0,000.0,035.9,029.0,18.5,0000.0,0009.43,0003.20,0002.47
2023-09-21 00:10:00,SystemResetWarning,0827.0,4.99,000.00,027.5,025.4,000.0,035.9,029.1,18.8,0000.0,0009.86,0003.20,0002.47
2023-09-21 00:11:00,SystemResetWarning,0827.1,5.00,000.00,027.5,025.7,000.0,035.9,029.2,18.8,0000.0,0009.97,0003.22,0002.47
2023-09-21 00:12:00,SystemResetWarning,0827.0,5.00,000.00,027.6,026.0,000.0,035.9,029.3,18.8,0000.0,0009.90,0003.19,0002.46
2023-09-21 00:13:00,SystemResetWarning,0827.0,5.00,000.00,027.6,026.3,000.0,036.0,029.3,18.8,0000.0,0009.30,0003.17,0002.46
2023-09-21 00:14:00,SystemResetWarning,0827.0,5.00,000.00,027.7,026.5,000.0,036.0,029.4,18.8,0000.0,0009.13,0003.16,0002.45
2023-09-21 00:15:00,SystemResetWarning,0827.1,5.01,000.00,027.7,026.7,000.0,036.0,029.5,18.8,0000.0,0009.25,0003.17,0002.45
2023-09-21 00:16:00,SystemResetWarning,0827.1,5.00,000.00,027.8,026.8,000.0,036.0,029.6,18.8,0000.0,0009.40,0003.21,0002.46
2023-09-21 00:17:00,SystemResetWarning,0827.1,5.00,000.00,027.8,027.0,000.0,036.1,029.6,18.9,0000.0,0009.23,0003.23,0002.45
2023-09-21 00:18:00,SystemResetWarning,0827.1,4.98,000.00,027.9,026.7,000.0,036.1,029.6,19.2,0000.0,0009.33,0003.23,0002.44
2023-09-21 00:19:00,SystemResetWarning,0827.0,5.00,000.00,027.8,025.0,000.0,036.0,029.1,19.3,0000.0,0009.16,0003.24,0002.44
2023-09-21 00:20:00,SystemResetWarning,0827.0,5.00,000.00,027.6,023.8,000.0,036.0,028.7,19.0,0000.0,0008.64,0003.26,0002.44
2023-09-21 00:21:00,SystemResetWarning,0827.0,5.02,000.00,027.6,023.8,000.0,035.9,028.8,19.1,0000.0,0008.27,0003.26,0002.42
2023-09-21 00:22:00,SystemResetWarning,0827.0,5.01,000.00,027.5,024.2,000.0,035.9,028.8,19.5,0000.0,0008.48,0003.29,0002.42
2023-09-21 00:23:00,SystemResetWarning,0827.0,4.99,000.00,027.5,024.6,000.0,035.9,028.9,18.9,0000.0,0008.55,0003.29,0002.42
2023-09-21 00:24:00,SystemResetWarning,0827.0,5.00,000.00,027.5,025.0,000.0,035.9,029.0,19.4,0000.0,0008.51,0003.29,0002.41
2023-09-21 00:25:00,SystemResetWarning,0827.0,5.00,000.00,027.5,025.3,000.0,035.9,029.0,19.4,0000.0,0008.40,0003.28,0002.40
2023-09-21 00:26:00,SystemResetWarning,0827.0,4.99,000.00,027.5,025.7,000.0,035.9,029.1,19.3,0000.0,0008.49,0003.27,0002.39
2023-09-21 00:27:00,SystemResetWarning,0827.0,5.00,000.00,027.6,026.0,000.0,035.9,029.2,19.4,0000.0,0009.36,0003.23,0002.38
2023-09-21 00:28:00,SystemResetWarning,0827.0,5.00,000.00,027.6,026.2,000.0,035.9,029.3,19.3,0000.0,0009.37,0003.20,0002.38
2023-09-21 00:29:00,SystemResetWarning,0827.1,5.00,000.00,027.7,026.4,000.0,036.0,029.3,19.3,0000.0,0008.66,0003.21,0002.38
2023-09-21 00:30:00,SystemResetWarning,0827.1,5.00,000.00,027.7,026.6,000.0,036.0,029.4,19.0,0000.0,0008.34,0003.18,0002.37
2023-09-21 00:31:00,SystemResetWarning,0827.1,5.01,000.00,027.8,026.7,000.0,036.0,029.5,19.0,0000.0,0008.28,0003.15,0002.36
2023-09-21 00:32:00,SystemResetWarning,0827.1,5.01,000.00,027.8,026.9,000.0,036.0,029.6,19.3,0000.0,0008.60,0003.14,0002.37
2023-09-21 00:33:00,SystemResetWarning,0827.2,5.01,000.00,027.9,027.0,000.0,036.1,029.6,19.1,0000.0,0008.49,0003.09,0002.36
2023-09-21 00:34:00,SystemResetWarning,0827.1,4.99,000.00,027.9,026.7,000.0,036.1,029.6,19.0,0000.0,0008.15,0003.08,0002.35
2023-09-21 00:35:00,SystemResetWarning,0827.1,4.99,000.00,027.8,025.1,000.0,036.1,029.2,19.0,0000.0,0008.31,0003.13,0002.35
2023-09-21 00:36:00,SystemResetWarning,0827.1,5.01,000.00,027.7,024.6,000.0,036.0,029.2,19.4,0000.0,0008.17,0003.12,0002.33
2023-09-21 00:37:00,SystemResetWarning,0827.2,5.01,000.00,027.7,024.7,000.0,036.0,029.1,19.7,0000.0,0007.92,0003.11,0002.32
2023-09-21 00:38:00,SystemResetWarning,0827.1,5.00,000.00,027.6,025.0,000.0,036.0,029.1,19.9,0000.0,0006.92,0003.14,0002.30
2023-09-21 00:39:00,SystemResetWarning,0827.1,4.99,000.00,027.6,025.3,000.0,036.0,029.2,19.8,0000.0,0007.76,0003.15,0002.28
2023-09-21 00:40:00,SystemResetWarning,0827.1,5.00,000.00,027.7,025.7,000.0,036.0,029.3,19.8,0000.0,0007.90,0003.12,0002.25
2023-09-21 00:41:00,SystemResetWarning,0827.2,5.01,000.00,027.7,026.0,000.0,036.1,029.3,19.7,0000.0,0007.86,0003.11,0002.23
2023-09-21 00:42:00,SystemResetWarning,0827.1,5.01,000.00,027.7,026.2,000.0,036.1,029.4,19.8,0000.0,0008.46,0003.12,0002.21
2023-09-21 00:43:00,SystemResetWarning,0827.1,4.99,000.00,027.8,026.4,000.0,036.1,029.5,19.6,0000.0,0009.38,0003.14,0002.18
2023-09-21 00:44:00,SystemResetWarning,0827.1,4.99,000.00,027.8,026.6,000.0,036.1,029.5,19.6,0000.0,0009.61,0003.13,0002.16
2023-09-21 00:45:00,SystemResetWarning,0827.2,4.99,000.00,027.9,026.8,000.0,036.1,029.6,19.4,0000.0,0009.71,0003.12,0002.15
2023-09-21 00:46:00,SystemResetWarning,0827.1,5.00,000.00,027.9,026.8,000.0,036.2,029.6,19.5,0000.0,0010.07,0003.09,0002.14
2023-09-21 00:47:00,SystemResetWarning,0827.1,5.00,000.00,027.9,025.4,000.0,036.1,029.4,19.5,0000.0,0010.15,0003.11,0002.13
2023-09-21 00:48:00,SystemResetWarning,0827.2,5.01,000.00,027.8,024.5,000.0,036.1,029.2,19.5,0000.0,0010.41,0003.11,0002.13
2023-09-21 00:49:00,SystemResetWarning,0827.1,5.01,000.00,027.7,024.6,000.0,036.1,029.2,19.6,0000.0,0011.04,0003.08,0002.13
2023-09-21 00:50:00,SystemResetWarning,0827.2,4.99,000.00,027.7,024.9,000.0,036.1,029.2,19.5,0000.0,0010.65,0003.07,0002.13
2023-09-21 00:51:00,SystemResetWarning,0827.2,5.01,000.00,027.7,025.3,000.0,036.1,029.2,19.6,0000.0,0010.37,0003.08,0002.14
2023-09-21 00:52:00,SystemResetWarning,0827.1,5.00,000.00,027.7,025.6,000.0,036.1,029.2,19.6,0000.0,0010.46,0003.12,0002.17
2023-09-21 00:53:00,SystemResetWarning,0827.2,4.99,000.00,027.7,025.9,000.0,036.1,029.4,19.4,0000.0,0009.96,0003.12,0002.18
2023-09-21 00:54:00,SystemResetWarning,0827.2,5.00,000.00,027.7,026.1,000.0,036.1,029.4,19.4,0000.0,0008.78,0003.14,0002.20
2023-09-21 00:55:00,SystemResetWarning,0827.2,5.01,000.00,027.8,026.4,000.0,036.1,029.5,19.3,0000.0,0008.47,0003.18,0002.21
2023-09-21 00:56:00,SystemResetWarning,0827.2,4.99,000.00,027.8,026.6,000.0,036.1,029.5,19.3,0000.0,0008.30,0003.19,0002.20
2023-09-21 00:57:00,SystemResetWarning,0827.3,4.99,000.00,027.9,026.7,000.0,036.2,029.6,19.3,0000.0,0007.81,0003.19,0002.19
2023-09-21 00:58:00,SystemResetWarning,0827.3,4.99,000.00,027.9,026.9,000.0,036.2,029.7,19.3,0000.0,0008.33,0003.21,0002.20
2023-09-21 00:59:00,SystemResetWarning,0827.3,5.01,000.00,028.0,026.7,000.0,036.2,029.6,19.4,0000.0,0008.27,0003.23,0002.20
